Zurück zum Katalog

STARLINK-32868

AktivKommunikationVLEO
NORAD 62854·PAYLOAD·🇺🇸 United States

Gestartet Feb 1, 2025 von Vandenberg Space Force Base

Loading…

Nächste Überflüge (nächste 24 Stunden)

TLE

AktuellSource: CelesTrak SupGP

Epoche: Sep 15, 2026, 02:51 UTC

1 62854C 25022A   26258.11923611  .00054773  00000+0  16179-2 0  2582
2 62854  53.1580 325.1293 0001255  91.6384  49.7260 15.34371164    12

Verfolge STARLINK-32868 in Echtzeit mit AllMySat

Download on the App Store